Back to catalog

FENGYUN 1C DEB

AliveSSO
NORAD 30118·DEBRIS·🇨🇳 China

Launched May 10, 1999 from Taiyuan Satellite Launch Center

Loading…

Next Passes (next 24 hours)

TLE

FreshSource: Space-Track

Epoch: Sep 14, 2026, 06:39 UTC

1 30118U 99025RX  26257.27744536  .00000092  00000-0  81133-4 0  9999
2 30118  98.8098 258.0695 0084564   7.7139   4.9214 14.05220524  7996

Track FENGYUN 1C DEB in real time with AllMySat

Download on the App Store